Вернуться в каталог

CZ-6A DEB

АктивенPO
NORAD 61355·DEBRIS·🇨🇳 China

Запущен Aug 6, 2024 с Taiyuan Satellite Launch Center

Loading…

Ближайшие Пролёты (ближайшие 24 часа)

TLE

СвежийSource: Space-Track

Эпоха: Sep 13, 2026, 17:33 UTC

1 61355U 24140VU  26256.73182362  .00001763  00000-0  39242-3 0  9994
2 61355  88.9783 258.3337 0084359 318.4678  41.0140 14.54350544107555

Отслеживайте CZ-6A DEB в реальном времени с AllMySat

Download on the App Store